Torna al catalogo

STARLINK-32436

AttivoComunicazioniVLEO
NORAD 61215·PAYLOAD·🇺🇸 United States

Lanciato Sep 20, 2024 da Vandenberg Space Force Base

Loading…

Prossimi Passaggi (prossime 24 ore)

TLE

AggiornatoSource: CelesTrak SupGP

Epoca: Sep 14, 2026, 21:06 UTC

1 61215C 24171R   26257.87965278 -.00044609  00000+0 -13175-2 0  2574
2 61215  53.1576 160.1300 0001190  96.6958 289.1729 15.34424313    18

Traccia STARLINK-32436 in tempo reale con AllMySat

Download on the App Store